カタログに戻る

WENWU 01

運用中科学SSO
NORAD 69539·PAYLOAD·🇨🇳 China
この衛星名は、まだ公式ソースで確認されていません。

打ち上げ Jun 15, 2026 から Jiuquan Satellite Launch Center

Loading…

次のパス (今後24時間)

TLE

最新Source: Space-Track

元期: Sep 14, 2026, 13:39 UTC

1 69539U 26134B   26257.56887376  .00003271  00000-0  21213-3 0  9995
2 69539  97.6904 327.9361 0015183 331.0638  28.9747 15.08723981 13782

AllMySatでWENWU 01をリアルタイム追跡

Download on the App Store